This demonstration page uses our WeatherBlox Daily Observations layout. Learn more.

Left ArrowRight Arrow

Hourly Observations for December 9, 2018

Temp ( °F °C ) Dew Point ( °F °C ) Humidity (%) Winds ( mph kmh ) Pressure ( in mb ) Visibility ( mi km ) Precip ( " mm )
12:53 am 00:53 Clear 22 -5.6 16 -8.9 78 78 SW 7 11 30.40 1029 9 14 0.00 0.00
1:53 am 01:53 Clear 20 -6.7 15 -9.4 81 81 WSW 5 7 30.39 1029 8 13 0.00 0.00
2:53 am 02:53 Clear 21 -6.1 15 -9.4 78 78 SW 7 11 30.38 1029 9 14 0.00 0.00
3:53 am 03:53 Clear 19 -7.2 13 -10.6 77 77 WSW 8 13 30.37 1029 9 14 0.00 0.00
4:53 am 04:53 Clear 20 -6.7 14 -10 78 78 W 8 13 30.36 1028 10 16 0.00 0.00
5:53 am 05:53 Clear 19 -7.2 14 -10 81 81 W 6 9 30.37 1029 9 14 0.00 0.00
6:53 am 06:53 Clear 21 -6.1 14 -10 74 74 NW 9 15 30.38 1029 10 16 0.00 0.00
7:53 am 07:53 Sunny 23 -5 15 -9.4 72 72 NW 10 17 30.39 1029 10 16 0.00 0.00
8:53 am 08:53 Sunny 26 -3.3 17 -8.3 69 69 NW 10 17 30.39 1029 10 16 0.00 0.00
9:53 am 09:53 Sunny 30 -1.1 20 -6.7 66 66 NW 12 19 30.40 1030 10 16 0.00 0.00
10:53 am 10:53 Sunny 33 0.6 21 -6.1 61 61 NW 8 13 30.40 1029 10 16 0.00 0.00
11:53 am 11:53 Sunny 36 2.2 22 -5.6 57 57 NNW 7 11 30.39 1029 10 16 0.00 0.00
12:53 pm 12:53 Sunny 36 2.2 21 -6.1 55 55 NW 7 11 30.37 1029 10 16 0.00 0.00
1:53 pm 13:53 Sunny 37 2.8 20 -6.7 50 50 NNW 6 9 30.36 1028 10 16 0.00 0.00
2:53 pm 14:53 Sunny 37 2.8 21 -6.1 52 52 NW 6 9 30.35 1028 10 16 0.00 0.00
3:53 pm 15:53 Sunny 37 2.8 23 -5 57 57 WNW 8 13 30.36 1028 10 16 0.00 0.00
4:53 pm 16:53 Sunny 32 0 21 -6.1 64 64 NW 8 13 30.37 1029 10 16 0.00 0.00
5:53 pm 17:53 Clear 28 -2.2 19 -7.2 69 69 NNW 8 13 30.39 1029 10 16 0.00 0.00
6:53 pm 18:53 Clear 26 -3.3 17 -8.3 69 69 NW 5 7 30.39 1029 10 16 0.00 0.00
7:53 pm 19:53 Clear 21 -6.1 15 -9.4 78 78 undefined N/A 30.40 1029 10 16 0.00 0.00
8:53 pm 20:53 Clear 19 -7.2 14 -10 81 81 undefined N/A 30.39 1029 10 16 0.00 0.00
9:53 pm 21:53 Clear 19 -7.2 14 -10 81 81 undefined N/A 30.39 1029 10 16 0.00 0.00
10:53 pm 22:53 Clear 17 -8.3 12 -11.1 80 80 NW 5 7 30.38 1029 10 16 0.00 0.00
11:53 pm 23:53 Clear 15 -9.4 9 -12.8 77 77 WNW 5 7 30.37 1028 10 16 0.00 0.00

Powered by AerisWeather